Tracking 28790 objects as of 19-Apr-2024
HD Live streaming from Space Station
objects crossing your sky now

STARLINK-5074

Track STARLINK-5074 now!
10-day predictions
STARLINK-5074 is classified as:


NORAD ID: 55438
Int'l Code: 2023-014AZ
Perigee: 577.0 km
Apogee: 581.4 km
Inclination: 70.0 °
Period: 96.1 minutes
Semi major axis: 6950 km
RCS: Unknown
Launch date: January 31, 2023
Source: United States (US)
Launch site: AIR FORCE WESTERN TEST RANGE (AFWTR)
Your satellite tracking list
Your tracking list is empty




NASA's NSSDC Master Catalog

Two Line Element Set (TLE):
1 55438U 23014AZ  24109.94935879 -.00000802  00000-0 -59459-4 0  9993
2 55438  70.0008   3.3666 0003145 279.4138  80.6665 14.98329754 68741
Source of the keplerian elements: AFSPC